TimeEDT,TemperatureF,Dew PointF,Humidity,Sea Level PressureIn,VisibilityMPH,Wind Direction,Wind SpeedMPH,Gust SpeedMPH,PrecipitationIn,Events,Conditions,WindDirDegrees,DateUTC
12:15 AM,41.0,28.4,61,30.15,10.0,Calm,Calm,-,N/A,,Clear,0,2013-03-28 04:15:00
12:35 AM,37.4,28.4,70,30.15,10.0,Calm,Calm,-,N/A,,Clear,0,2013-03-28 04:35:00
12:55 AM,35.6,28.4,75,30.15,10.0,Calm,Calm,-,N/A,,Clear,0,2013-03-28 04:55:00
1:15 AM,35.6,28.4,75,30.15,10.0,Calm,Calm,-,N/A,,Clear,0,2013-03-28 05:15:00
1:35 AM,33.8,28.4,81,30.15,10.0,Calm,Calm,-,N/A,,Clear,0,2013-03-28 05:35:00
1:55 AM,35.6,30.2,81,30.14,10.0,West,6.9,-,N/A,,Scattered Clouds,270,2013-03-28 05:55:00
2:15 AM,42.8,30.2,61,30.14,10.0,West,4.6,-,N/A,,Scattered Clouds,270,2013-03-28 06:15:00
2:35 AM,44.6,30.2,57,30.14,10.0,West,8.1,-,N/A,,Scattered Clouds,280,2013-03-28 06:35:00
2:55 AM,44.6,28.4,53,30.13,10.0,West,8.1,-,N/A,,Mostly Cloudy,260,2013-03-28 06:55:00
3:15 AM,42.8,28.4,57,30.13,10.0,WSW,4.6,-,N/A,,Clear,250,2013-03-28 07:15:00
3:35 AM,41.0,28.4,61,30.13,10.0,WSW,6.9,-,N/A,,Clear,250,2013-03-28 07:35:00
3:55 AM,41.0,28.4,61,30.13,10.0,West,6.9,-,N/A,,Clear,260,2013-03-28 07:55:00
4:15 AM,42.8,28.4,57,30.12,10.0,West,5.8,-,N/A,,Clear,260,2013-03-28 08:15:00
4:35 AM,41.0,28.4,61,30.12,10.0,West,5.8,-,N/A,,Clear,260,2013-03-28 08:35:00
4:55 AM,39.2,28.4,65,30.12,10.0,Calm,Calm,-,N/A,,Clear,0,2013-03-28 08:55:00
5:15 AM,39.2,28.4,65,30.12,10.0,West,3.5,-,N/A,,Clear,270,2013-03-28 09:15:00
5:35 AM,39.2,28.4,65,30.12,10.0,West,3.5,-,N/A,,Clear,270,2013-03-28 09:35:00
5:55 AM,35.6,28.4,75,30.12,10.0,Calm,Calm,-,N/A,,Clear,0,2013-03-28 09:55:00
6:15 AM,35.6,28.4,75,30.13,10.0,Calm,Calm,-,N/A,,Clear,0,2013-03-28 10:15:00
6:35 AM,33.8,28.4,81,30.13,10.0,Calm,Calm,-,N/A,,Clear,0,2013-03-28 10:35:00
6:55 AM,33.8,28.4,81,30.13,10.0,Calm,Calm,-,N/A,,Clear,0,2013-03-28 10:55:00
7:15 AM,35.6,28.4,75,30.13,10.0,Calm,Calm,-,N/A,,Clear,0,2013-03-28 11:15:00
7:35 AM,44.6,28.4,53,30.14,10.0,WNW,8.1,-,N/A,,Scattered Clouds,290,2013-03-28 11:35:00
7:55 AM,44.6,28.4,53,30.15,10.0,WNW,4.6,-,N/A,,Mostly Cloudy,290,2013-03-28 11:55:00
8:15 AM,46.4,30.2,53,30.15,10.0,West,3.5,-,N/A,,Scattered Clouds,260,2013-03-28 12:15:00
8:35 AM,46.4,30.2,53,30.15,10.0,West,8.1,-,N/A,,Scattered Clouds,280,2013-03-28 12:35:00
8:55 AM,46.4,30.2,53,30.14,10.0,WNW,9.2,-,N/A,,Clear,300,2013-03-28 12:55:00
9:15 AM,48.2,30.2,50,30.15,10.0,WNW,8.1,-,N/A,,Scattered Clouds,300,2013-03-28 13:15:00
9:35 AM,48.2,30.2,50,30.16,10.0,WNW,9.2,18.4,N/A,,Mostly Cloudy,290,2013-03-28 13:35:00
9:55 AM,48.2,30.2,50,30.16,10.0,WNW,9.2,-,N/A,,Mostly Cloudy,290,2013-03-28 13:55:00
10:15 AM,48.2,30.2,50,30.15,10.0,NW,9.2,18.4,N/A,,Scattered Clouds,310,2013-03-28 14:15:00
10:35 AM,50.0,30.2,47,30.16,10.0,NW,10.4,16.1,N/A,,Scattered Clouds,310,2013-03-28 14:35:00
10:55 AM,51.8,30.2,44,30.16,10.0,WNW,12.7,20.7,N/A,,Mostly Cloudy,290,2013-03-28 14:55:00
11:15 AM,51.8,30.2,44,30.16,10.0,NW,9.2,19.6,N/A,,Mostly Cloudy,320,2013-03-28 15:15:00
11:35 AM,51.8,30.2,44,30.16,10.0,NNW,11.5,18.4,N/A,,Scattered Clouds,330,2013-03-28 15:35:00
11:55 AM,51.8,30.2,44,30.16,10.0,NW,16.1,24.2,N/A,,Scattered Clouds,310,2013-03-28 15:55:00
12:15 PM,51.8,28.4,41,30.16,10.0,NNW,10.4,21.9,N/A,,Scattered Clouds,330,2013-03-28 16:15:00
12:35 PM,51.8,28.4,41,30.16,10.0,NW,13.8,24.2,N/A,,Mostly Cloudy,320,2013-03-28 16:35:00
12:55 PM,51.8,28.4,41,30.16,10.0,North,10.4,18.4,N/A,,Overcast,360,2013-03-28 16:55:00
1:15 PM,51.8,28.4,41,30.16,10.0,NNW,13.8,23.0,N/A,,Overcast,330,2013-03-28 17:15:00
1:35 PM,51.8,30.2,44,30.16,10.0,North,11.5,20.7,N/A,,Overcast,350,2013-03-28 17:35:00
1:55 PM,51.8,28.4,41,30.16,10.0,NNW,12.7,19.6,N/A,,Mostly Cloudy,340,2013-03-28 17:55:00
2:15 PM,51.8,30.2,44,30.15,10.0,WNW,9.2,18.4,N/A,,Mostly Cloudy,300,2013-03-28 18:15:00
2:35 PM,51.8,28.4,41,30.15,10.0,NNW,11.5,17.3,N/A,,Mostly Cloudy,330,2013-03-28 18:35:00
2:55 PM,53.6,30.2,41,30.15,10.0,NNW,13.8,19.6,N/A,,Scattered Clouds,330,2013-03-28 18:55:00
3:15 PM,51.8,30.2,44,30.15,10.0,WNW,11.5,19.6,N/A,,Mostly Cloudy,300,2013-03-28 19:15:00
3:35 PM,51.8,30.2,44,30.15,10.0,NNW,12.7,20.7,N/A,,Mostly Cloudy,330,2013-03-28 19:35:00
3:55 PM,53.6,30.2,41,30.16,10.0,NNW,10.4,17.3,N/A,,Mostly Cloudy,340,2013-03-28 19:55:00
4:15 PM,51.8,30.2,44,30.16,10.0,North,12.7,23.0,N/A,,Scattered Clouds,350,2013-03-28 20:15:00
4:35 PM,53.6,32.0,44,30.16,10.0,North,11.5,19.6,N/A,,Scattered Clouds,360,2013-03-28 20:35:00
4:55 PM,51.8,28.4,41,30.17,10.0,NW,11.5,21.9,N/A,,Mostly Cloudy,320,2013-03-28 20:55:00
5:15 PM,51.8,28.4,41,30.17,10.0,NNW,13.8,19.6,N/A,,Mostly Cloudy,330,2013-03-28 21:15:00
5:35 PM,51.8,30.2,44,30.18,10.0,NW,11.5,18.4,N/A,,Overcast,320,2013-03-28 21:35:00
5:55 PM,51.8,30.2,44,30.18,10.0,North,10.4,16.1,N/A,,Overcast,350,2013-03-28 21:55:00
6:15 PM,51.8,30.2,44,30.19,10.0,NW,12.7,16.1,N/A,,Overcast,320,2013-03-28 22:15:00
6:35 PM,51.8,30.2,44,30.20,10.0,NW,9.2,-,N/A,,Overcast,310,2013-03-28 22:35:00
6:55 PM,50.0,30.2,47,30.21,10.0,NW,6.9,-,N/A,,Overcast,320,2013-03-28 22:55:00
7:15 PM,50.0,30.2,47,30.21,10.0,NNW,6.9,-,N/A,,Overcast,330,2013-03-28 23:15:00
7:35 PM,50.0,30.2,47,30.21,10.0,NW,6.9,-,N/A,,Mostly Cloudy,310,2013-03-28 23:35:00
7:55 PM,48.2,30.2,50,30.22,10.0,NNW,5.8,-,N/A,,Scattered Clouds,340,2013-03-28 23:55:00
8:15 PM,48.2,30.2,50,30.22,10.0,Calm,Calm,-,N/A,,Scattered Clouds,0,2013-03-29 00:15:00
8:35 PM,44.6,30.2,57,30.23,10.0,Calm,Calm,-,N/A,,Scattered Clouds,0,2013-03-29 00:35:00
8:55 PM,41.0,30.2,65,30.24,10.0,Calm,Calm,-,N/A,,Clear,0,2013-03-29 00:55:00
9:15 PM,39.2,33.8,81,30.24,10.0,Calm,Calm,-,N/A,,Scattered Clouds,0,2013-03-29 01:15:00
9:35 PM,39.2,30.2,70,30.24,10.0,Calm,Calm,-,N/A,,Scattered Clouds,0,2013-03-29 01:35:00
9:55 PM,37.4,30.2,75,30.24,10.0,Calm,Calm,-,N/A,,Scattered Clouds,0,2013-03-29 01:55:00
10:15 PM,37.4,33.8,87,30.25,10.0,Calm,Calm,-,N/A,,Scattered Clouds,0,2013-03-29 02:15:00
10:35 PM,37.4,32.0,81,30.25,10.0,Calm,Calm,-,N/A,,Scattered Clouds,0,2013-03-29 02:35:00
10:55 PM,37.4,33.8,87,30.25,10.0,Calm,Calm,-,N/A,,Mostly Cloudy,0,2013-03-29 02:55:00
11:15 PM,35.6,32.0,87,30.26,10.0,Calm,Calm,-,N/A,,Mostly Cloudy,0,2013-03-29 03:15:00
11:35 PM,37.4,33.8,87,30.26,10.0,Calm,Calm,-,N/A,,Mostly Cloudy,0,2013-03-29 03:35:00
11:55 PM,37.4,32.0,81,30.26,10.0,Calm,Calm,-,N/A,,Overcast,0,2013-03-29 03:55:00